Overview Statistics Trail Chart Weather Telemetry Raw packets
 

This is the latest recevied weather packets stored in our database for station/object K1TTC. If no packets are shown the sender has not sent any weather packets the latest 10 day(s).

<< 39 40 41 42 43 44 45 >>
Time Temp. Humidity Pressure Rain* Wind** Luminosity Snow
1788028188 27.22° C 31% 1023.2 hPa 0 mm - 749 W/m² -
1788027584 26.67° C 32% 1023.3 hPa 0 mm - 788 W/m² -
1788026986 26.67° C 32% 1023.5 hPa 0 mm - 795 W/m² -
1788026383 26.67° C 33% 1023.5 hPa 0 mm - 816 W/m² -
1788025783 26.67° C 33% 1023.5 hPa 0 mm - 835 W/m² -
1788025183 26.67° C 33% 1023.7 hPa 0 mm - 849 W/m² -
1788024582 26.11° C 33% 1023.8 hPa 0 mm - 860 W/m² -
1788023984 26.11° C 35% 1023.7 hPa 0 mm - 867 W/m² -
1788023422 25.56° C 34% 1023.9 hPa 0 mm - 872 W/m² -
1788022825 25.56° C 37% 1024.1 hPa 0 mm - 879 W/m² -
1788022184 25° C 37% 1024.1 hPa 0 mm - 877 W/m² -
1788021580 25° C 36% 1024.2 hPa 0 mm - 884 W/m² -
1788020977 25° C 37% 1024.2 hPa 0 mm - 884 W/m² -
1788020376 25° C 37% 1024.2 hPa 0 mm - 882 W/m² -
1788019776 25° C 39% 1024.3 hPa 0 mm - 875 W/m² -
1788019174 24.44° C 40% 1024.5 hPa 0 mm - 870 W/m² -
1788018574 24.44° C 41% 1024.5 hPa 0 mm - 861 W/m² -
1788017974 23.89° C 42% 1024.6 hPa 0 mm - 851 W/m² -
1788017401 23.89° C 42% 1024.7 hPa 0 mm - 838 W/m² -
1788016773 23.33° C 44% 1024.8 hPa 0 mm - 831 W/m² -
1788016172 23.33° C 44% 1024.8 hPa 0 mm - 816 W/m² -
1788015593 23.33° C 46% 1024.8 hPa 0 mm - 798 W/m² -
1788014971 22.78° C 45% 1024.8 hPa 0 mm - 782 W/m² -
1788014371 22.78° C 47% 1024.8 hPa 0 mm - 765 W/m² -
1788013770 22.78° C 48% 1024.9 hPa 0 mm - 744 W/m² -

* Rain latest hour (hover to see other rain measurements)
** Current wind speed in m/s (hover to see current wind gust speed)